Regional Weather Roundup
Issued by NWS Northern Indiana

Home | Current Version | Previous Version | Text Only | Print | Product List | Glossary On
Versions: 1 2 3 4 5 6 7 8 9 10 11 12 13 14 15 16 17 18 19 20 21 22 23 24 25 26 27 28 29 30 31 32 33 34 35 36 37 38 39 40 41 42 43 44 45 46 47 48 49 50
000
ASUS43 KIWX 290810
RWRIWX

KIWX WEATHER ROUNDUP
NATIONAL WEATHER SERVICE NORTHERN INDIANA
400 AM EDT THU SEP 29 2016

NOTE: "FAIR" INDICATES FEW OR NO CLOUDS BELOW 12,000 FEET WITH NO
SIGNIFICANT WEATHER AND/OR OBSTRUCTIONS TO VISIBILITY.

* THESE STATIONS ARE NOT UNDER NWS QUALITY CONTROL. THEY ALSO MAY NOT
  REPORT WEATHER SUCH AS PRECIPITATION OR FOG.

INZ001>027-290900-
NORTHERN INDIANA

CITY           SKY/WX    TMP DP  RH WIND       PRES   REMARKS
GARY*          DRIZZLE   63  59  87 NE13G22   30.05R
VALPARAISO     CLOUDY    57  54  89 N9        30.03S
MICHIGAN CITY* LGT RAIN  55  55 100 MISG      30.04R
LAPORTE*       CLOUDY    58  58 100 N13       30.03R
KNOX*          CLOUDY    55  41  58 N10       30.00S
SOUTH BEND     LGT RAIN  56  55  97 NE9       30.03R
GOSHEN         CLOUDY    57  54  89 NE8       30.00R
MONTICELLO*    CLOUDY    55  51  87 N6        29.98S
LOGANSPORT*    CLOUDY    54  52  94 N3        29.99R
ROCHESTER*     LGT RAIN  57  57 100 CALM      29.99R
WARSAW*        CLOUDY    55  55 100 E13G18    29.99S
ANGOLA*          N/A     55  45  67 NE7       29.99S
FORT WAYNE     CLOUDY    56  54  93 E7        29.98S
HUNTINGTON*    CLOUDY    54  53  96 CALM      29.97S
MARION*        CLOUDY    53  52  95 NE3       29.98S

$$
INZ028>050-290900-
CENTRAL INDIANA

CITY           SKY/WX    TMP DP  RH WIND       PRES   REMARKS
KOKOMO*        CLOUDY    55  54  94 NE3       29.98S
MUNCIE*        CLOUDY    55  52  89 N5        29.97R
INDIANAPOLIS   CLOUDY    56  51  84 N3        29.97S

$$
MIZ043>046-050>051-056>058-064>065-071>073-077>080-290900-
SOUTHWEST LOWER MICHIGAN

CITY           SKY/WX    TMP DP  RH WIND       PRES   REMARKS
BATTLE CREEK   LGT RAIN  56  56 100 N8        30.05R
BENTON HARBOR  CLOUDY    59  53  80 NE9       30.04S
COLDWATER*     LGT RAIN  57  57  99 NE8       30.01S
HILLSDALE*     RAIN      55  54  94 NE3       30.01R
HOLLAND        CLOUDY    60  53  77 N7        30.08S
GRAND RAPIDS   CLOUDY    59  53  80 NE10      30.08S
KALAMAZOO      LGT RAIN  57  54  89 N9        30.05R FOG
STURGIS*       RAIN      57  55  92 NE12      30.00S
THREE RIVERS*  RAIN      58  56  96 NE10      30.03R

$$
OHZ001>008-015>018-024>025-290900-
NORTHWEST OHIO

CITY           SKY/WX    TMP DP  RH WIND       PRES   REMARKS
WAUSEON*       CLOUDY    57  57 100 NE6       29.99S FOG
DEFIANCE       CLOUDY    57  53  86 E7        29.99R
FINDLAY        CLOUDY    57  53  86 E7        29.97S
TOLEDO EXPRESS CLOUDY    56  56 100 CALM      29.99R
TOLEDO METCALF CLOUDY    58  57  97 CALM      30.00R
LIMA           CLOUDY    55  55 100 E6        29.97S

$$
AND FOR LAKE MICHIGAN COASTAL AND OPEN LAKE BUOY OBSERVATIONS

STATION/POSITION TEMP    WIND        PRES    VSBY  WAVE
                 AIR SEA DIR/SP/G                  HT/PER
                 (F)     (DEG/KT/KT) (MB)    (MI)  (FT/S)
CALUMET HARBOR    63      20/ 16/ 23 1016.9R
MICHIGAN CITY     60      20/ 24/ 27   N/A
BURNS HARBOR      62      50/ 21/ 27 1016.9R
SAINT JOSEPH      59      40/  6/ 12 1017.3
SOUTH LAKE BUOY   65 69   50/ 23/ 27 1017.9R         7/ 7
4 MI NW BRIDGMAN  61 64   40/ 19/ 25 1016.8          6/ 6
MICHIGAN CITY     62 66   50/ 19/ 25   N/A           7/ 6

$$
&&




USA.gov is the U.S. government's official web portal to all federal, state and local government web resources and services.